Flag for U.S.A. Weather past 2 weeks in Sedona, Arizona, U.S.A.

Now
64 °F

Partly sunny.


Feels Like: 64 °F
Forecast: 47 / 68 °F
Wind: 6 mph from Southeast

Location: Sedona Airport

Current Time: May 24, 2015 at 11:04:38 AM

Latest Report: May 24, 2015 at 10:15 AM


Visibility: 10 mi

Pressure: 30.03 "Hg

Humidity: 40%

Dew point: 39 °F

Location of SedonaLocation

Historic Weather in Sedona — Graph

°F

Sedona temperature yesterday

Maximum temperature yesterday: 66 °F (at 4:15 PM)
Minimum temperature yesterday: 46 °F (at 5:15 AM)
Average temperature yesterday: 57 °F

Past Weeks' High & Low Weather Summary

 TemperatureHumidityPressure
High79 °F (May 11, 3:15 PM)100% (May 15, 5:55 PM)30.14 "Hg (May 15, 5:55 PM)
Low41 °F (May 16, 5:20 AM)12% (May 11, 5:15 PM)29.82 "Hg (May 16, 1:15 AM)
Average59 °F42%30.01 "Hg
* Reported May 9 9:15 AM — May 24 9:55 AM, Sedona, Weather by CustomWeather, © 2015

Note: Actual official high and low records may vary slightly from our data, if they occured in-between our weather recording intervals... More about our weather records

Advertising

Sedona weather history for previous 24 hours

 ConditionsComfort  
Time TempWeatherWind HumidityBarometerVisibility
9:55 AM
Sun, May 24
61 °FMostly cloudy.No wind42%30.03 "Hg10 mi
9:15 AM59 °FMostly cloudy.5 mph45%30.03 "Hg10 mi
8:55 AM59 °FOvercast.5 mph45%30.04 "Hg10 mi
8:15 AM55 °FOvercast.3 mph55%30.03 "Hg10 mi
7:55 AM55 °FBroken clouds.No wind51%30.02 "Hg10 mi
7:35 AM54 °FMore clouds than sun.No wind51%30.02 "Hg10 mi
7:15 AM52 °FOvercast.5 mph54%30.02 "Hg10 mi
6:55 AM52 °FBroken clouds.5 mph54%30.01 "Hg10 mi
6:35 AM50 °FBroken clouds.8 mph58%30.01 "Hg10 mi
6:15 AM50 °FPartly sunny.8 mph58%30.00 "Hg10 mi
5:55 AM50 °FScattered clouds.6 mph58%30.00 "Hg10 mi
5:35 AM48 °FSunny.8 mph58%30.00 "Hg10 mi
5:15 AM50 °FClear.6 mph54%29.99 "Hg10 mi
4:55 AM50 °FClear.6 mph54%29.99 "Hg10 mi
4:35 AM50 °FClear.7 mph54%29.99 "Hg10 mi
4:15 AM52 °FClear.7 mph50%29.99 "Hg10 mi
3:55 AM52 °FClear.6 mph50%29.99 "Hg10 mi
3:15 AM52 °FClear.No wind50%30.00 "Hg10 mi
2:55 AM52 °FClear.No wind50%30.01 "Hg10 mi
2:35 AM52 °FClear.No wind50%30.02 "Hg10 mi
2:15 AM54 °FClear.No wind47%30.02 "Hg10 mi
1:55 AM54 °FClear.No wind47%30.02 "Hg10 mi
1:15 AM54 °FClear.No wind47%30.02 "Hg10 mi
12:55 AM54 °FPassing clouds.No wind47%30.03 "Hg10 mi
12:35 AM55 °FOvercast.6 mph44%30.03 "Hg10 mi
12:15 AM55 °FOvercast.7 mph44%30.03 "Hg10 mi
11:55 PM
Sat, May 23
55 °FOvercast.9 mph44%30.03 "Hg10 mi
11:35 PM55 °FPassing clouds.7 mph44%30.04 "Hg10 mi
11:15 PM55 °FPassing clouds.7 mph44%30.04 "Hg10 mi
10:55 PM57 °FOvercast.8 mph41%30.04 "Hg10 mi
10:35 PM57 °FOvercast.6 mph41%30.04 "Hg10 mi
10:15 PM57 °FPassing clouds.6 mph39%30.04 "Hg10 mi
9:55 PM57 °FOvercast.6 mph41%30.03 "Hg10 mi
9:35 PM59 °FMostly cloudy.10 mph39%30.03 "Hg10 mi
9:15 PM59 °FOvercast.5 mph39%30.02 "Hg10 mi
8:55 PM59 °FOvercast.3 mph39%30.02 "Hg10 mi
8:15 PM59 °FMostly cloudy.3 mph39%30.00 "Hg10 mi
7:55 PM61 °FOvercast.6 mph36%30.01 "Hg10 mi
7:35 PM61 °FMostly cloudy.8 mph36%30.00 "Hg10 mi
7:15 PM61 °FMostly cloudy.6 mph36%30.00 "Hg10 mi
6:55 PM61 °FOvercast.10 mph36%30.00 "Hg10 mi
6:35 PM61 °FOvercast.10 mph36%29.99 "Hg10 mi
6:15 PM63 °FMostly cloudy.9 mph34%29.99 "Hg10 mi
5:55 PM63 °FBroken clouds.8 mph34%29.99 "Hg10 mi
5:35 PM63 °FMostly cloudy.No wind34%29.99 "Hg10 mi
5:15 PM63 °FMostly cloudy.9 mph34%30.00 "Hg10 mi
4:55 PM63 °FMostly cloudy.7 mph34%30.00 "Hg10 mi
4:35 PM63 °FCloudy.7 mph34%30.00 "Hg10 mi
4:15 PM66 °FBroken clouds.6 mph30%30.00 "Hg10 mi
3:55 PM63 °FMore clouds than sun.6 mph34%30.01 "Hg10 mi
3:35 PM63 °FMore clouds than sun.10 mph34%30.02 "Hg10 mi
3:15 PM63 °FMore clouds than sun.7 mph34%30.03 "Hg10 mi
2:55 PM63 °FMostly cloudy.9 mph34%30.03 "Hg10 mi
2:15 PM63 °FOvercast.6 mph37%30.04 "Hg10 mi
1:55 PM63 °FCloudy.7 mph34%30.05 "Hg10 mi
1:15 PM63 °FBroken clouds.5 mph37%30.06 "Hg10 mi
12:55 PM63 °FBroken clouds.6 mph37%30.06 "Hg10 mi
12:35 PM61 °FCloudy.3 mph39%30.06 "Hg10 mi
12:15 PM61 °FMostly cloudy.5 mph39%30.06 "Hg10 mi
11:55 AM63 °FMostly cloudy.9 mph37%30.07 "Hg10 mi
11:35 AM61 °FPartly sunny.8 mph39%30.07 "Hg10 mi
11:15 AM61 °FBroken clouds.5 mph39%30.07 "Hg10 mi
Weather by CustomWeather, © 2015

See weather overviewHow to use our weather pages